Estherville, IA

9:11 PM CDT on June 25, 2017 (GMT -0500)
Estherville Municipal

Weather History for KEST - October, 2012

Change the Weather History Date:

Wednesday, October 10, 2012

  Actual Average Record
Temperature  
Mean Temperature 42 °F 50 °F  
Max Temperature 57 °F 63 °F 84 °F (1955)
Min Temperature 27 °F 38 °F 20 °F (1987)
Degree Days  
Heating Degree Days 23 15  
Month to date heating degree days 193 132  
Since 1 July heating degree days 390 340  
Cooling Degree Days 0 0  
Month to date cooling degree days 0 4  
Year to date cooling degree days 886 591  
Moisture  
Dew Point 25 °F    
Average Humidity 55    
Maximum Humidity 85    
Minimum Humidity 24    
Precipitation  
Precipitation 0.00 in 0.08 in 0.43 in (1973)
Month to date precipitation 0.07 0.98  
Sea Level Pressure  
Sea Level Pressure 30.07 in    
Wind  
Wind Speed 11 mph (WSW)    
Max Wind Speed 21 mph    
Max Gust Speed 28 mph    
Visibility 10 miles    
Events      
T = Trace of Precipitation, MM = Missing Value Source: NWS Daily Summary

Daily Weather History Graph

Daily Weather History Graph

Search for Another Location

Airport or City:

Trip Planner

Search our weather history database for the weather conditions in past years. The results will help you decide how hot, cold, wet, or windy it might be!

Date:

Astronomy

Oct. 10, 2012 Rise Set
Actual Time 7:27 AM CDT 6:43 PM CDT
Civil Twilight 6:58 AM CDT 7:11 PM CDT
Nautical Twilight 6:25 AM CDT 7:45 PM CDT
Astronomical Twilight 5:52 AM CDT 8:18 PM CDT
Moon 1:56 AM CDT (10/10) 3:54 PM CDT (10/10)
Length of Visible Light 12h 13m
Length of Day
11h 15m
Waning Crescent, 27% of the Moon is Illuminated
Oct 10
Waning Crescent
Oct 15
New
Oct 21
First Quarter
Oct 29
Full
Nov 6
Last Quarter

Hourly Weather History & Observations

Time (CDT) Temp. Windchill Dew Point Humidity Pressure Visibility Wind Dir Wind Speed Gust Speed Precip Events Conditions
12:52 AM 28.0 °F 22.8 °F 23.0 °F 81% 30.09 in 10.0 mi West 4.6 mph - N/A   Clear
1:52 AM 30.0 °F 23.2 °F 23.0 °F 75% 30.09 in 10.0 mi West 6.9 mph - N/A   Mostly Cloudy
2:52 AM 30.0 °F 22.4 °F 24.1 °F 79% 30.09 in 10.0 mi West 8.1 mph - N/A   Scattered Clouds
3:52 AM 28.0 °F 20.0 °F 21.9 °F 78% 30.10 in 10.0 mi SW 8.1 mph - N/A   Mostly Cloudy
4:52 AM 32.0 °F 24.2 °F 24.1 °F 73% 30.10 in 10.0 mi West 9.2 mph - N/A   Scattered Clouds
5:52 AM 30.0 °F 21.7 °F 24.1 °F 79% 30.13 in 10.0 mi West 9.2 mph - N/A   Clear
6:52 AM 28.9 °F 21.1 °F 24.1 °F 82% 30.14 in 10.0 mi West 8.1 mph - N/A   Clear
7:52 AM 27.0 °F 18.7 °F 23.0 °F 85% 30.17 in 10.0 mi West 8.1 mph - N/A   Clear
9:52 AM 41.0 °F 35.8 °F 30.0 °F 65% 30.19 in 10.0 mi West 8.1 mph - N/A   Clear
11:52 AM 48.9 °F - 28.0 °F 44% 30.18 in 10.0 mi West 12.7 mph - N/A   Clear
12:52 PM 50.0 °F - 25.0 °F 38% 30.17 in 10.0 mi West 10.4 mph 20.7 mph N/A   Clear
1:52 PM 53.1 °F - 23.0 °F 31% 30.13 in 10.0 mi WSW 18.4 mph 25.3 mph N/A   Clear
2:52 PM 55.0 °F - 23.0 °F 29% 30.09 in 10.0 mi WSW 15.0 mph 24.2 mph N/A   Clear
3:52 PM 57.0 °F - 21.9 °F 26% 30.06 in 10.0 mi WSW 15.0 mph 21.9 mph N/A   Clear
4:52 PM 57.0 °F - 23.0 °F 27% 30.03 in 10.0 mi SSW 13.8 mph - N/A   Clear
5:52 PM 55.9 °F - 23.0 °F 28% 30.02 in 10.0 mi SW 13.8 mph - N/A   Clear
6:52 PM 48.9 °F - 24.1 °F 38% 30.02 in 10.0 mi South 6.9 mph - N/A   Clear
7:52 PM 44.1 °F 39.0 °F 24.1 °F 45% 30.01 in 10.0 mi South 9.2 mph - N/A   Clear
8:52 PM 43.0 °F 37.2 °F 26.1 °F 51% 29.99 in 10.0 mi South 10.4 mph - N/A   Clear
9:52 PM 43.0 °F 36.4 °F 28.0 °F 56% 29.97 in 10.0 mi South 12.7 mph - N/A   Clear
10:52 PM 45.0 °F 38.2 °F 28.9 °F 53% 29.94 in 10.0 mi South 15.0 mph - N/A   Clear
11:52 PM 48.9 °F - 28.9 °F 46% 29.93 in 10.0 mi SSW 16.1 mph 21.9 mph N/A   Clear